Weather History for Hoquiam, WA

Change the Weather History Date:

Wednesday, May 22, 2013

  Actual Average Record
Temperature  
Mean Temperature 50 °F 54 °F  
Max Temperature 54 °F 61 °F 88 °F (1969)
Min Temperature 46 °F 47 °F 37 °F (1960)
Degree Days  
Heating Degree Days 15 11  
Month to date heating degree days 226 276  
Cooling Degree Days 0 0  
Month to date cooling degree days 3 0  
Year to date cooling degree days 3 0  
Growing Degree Days 1 (Base 50)    
Moisture  
Dew Point 45 °F    
Average Humidity 82    
Maximum Humidity 93    
Minimum Humidity 71    
Precipitation  
Precipitation 0.05 in 0.09 in 0.71 in (1984)
Month to date precipitation 1.26 2.42  
Year to date precipitation 27.58 32.05  
Sea Level Pressure  
Sea Level Pressure 29.90 in    
Wind  
Wind Speed 6 mph (SSE)    
Max Wind Speed 14 mph    
Max Gust Speed 16 mph    
Visibility 10 miles    
Events Rain    
T = Trace of Precipitation, MM = Missing Value Source: NWS Daily Summary

Daily Weather History Graph

Daily Weather History Graph

Search for Another Location

Airport:

Trip Planner

Search our weather history database for the weather conditions in past years. The results will help you decide how hot, cold, wet, or windy it might be!

Date:

Astronomy

May. 22, 2013 Rise Set
Actual Time 5:32 AM PDT 8:53 PM PDT
Civil Twilight 4:55 AM PDT 9:30 PM PDT
Nautical Twilight 4:06 AM PDT 10:19 PM PDT
Astronomical Twilight 3:04 AM PDT 11:22 PM PDT
Moon 6:13 PM PDT (5/22) 3:50 AM PDT (5/22)
Length of Visible Light 16h 35m
Length of Day
15h 20m
Waxing Gibbous, 92% of the Moon is Illuminated
May 22
Waxing Gibbous
May 24
Full
May 31
Last Quarter
Jun 8
New
Jun 16
First Quarter

Hourly Weather History & Observations

Time (PDT) Temp. Dew Point Humidity Pressure Visibility Wind Dir Wind Speed Gust Speed Precip Events Conditions
12:04 AM 48.2 °F 44.6 °F 87% 29.90 in 10.0 mi SSW 12.7 mph - 0.00 in   Overcast
12:53 AM 48.9 °F 44.1 °F 83% 29.91 in 10.0 mi SW 9.2 mph - 0.00 in   Overcast
1:16 AM 48.2 °F 42.8 °F 82% 29.90 in 10.0 mi SW 9.2 mph - N/A   Overcast
1:29 AM 48.2 °F 44.6 °F 87% 29.89 in 10.0 mi WSW 9.2 mph - N/A   Overcast
1:36 AM 48.2 °F 44.6 °F 87% 29.89 in 10.0 mi SW 10.4 mph - N/A   Overcast
1:49 AM 48.2 °F 42.8 °F 82% 29.89 in 10.0 mi WSW 10.4 mph - N/A   Overcast
1:53 AM 48.9 °F 43.0 °F 80% 29.91 in 10.0 mi SW 10.4 mph - N/A   Overcast
2:27 AM 48.2 °F 44.6 °F 87% 29.89 in 10.0 mi South 9.2 mph - N/A   Overcast
2:53 AM 48.9 °F 46.0 °F 90% 29.91 in 10.0 mi SSE 9.2 mph - 0.00 in Rain Light Rain
3:46 AM 48.2 °F 44.6 °F 87% 29.90 in 10.0 mi SSE 10.4 mph - 0.00 in   Overcast
3:53 AM 48.9 °F 45.0 °F 86% 29.91 in 10.0 mi SSE 11.5 mph - 0.00 in   Overcast
4:20 AM 48.2 °F 44.6 °F 87% 29.90 in 8.0 mi SSE 9.2 mph - 0.01 in Rain Light Rain
4:53 AM 48.9 °F 45.0 °F 86% 29.90 in 10.0 mi SSE 8.1 mph - 0.01 in   Overcast
5:27 AM 48.2 °F 44.6 °F 87% 29.88 in 10.0 mi SE 8.1 mph - N/A   Overcast
5:53 AM 48.0 °F 45.0 °F 89% 29.89 in 10.0 mi SSE 8.1 mph - N/A   Mostly Cloudy
6:53 AM 48.9 °F 46.0 °F 90% 29.88 in 8.0 mi South 5.8 mph - N/A   Mostly Cloudy
7:19 AM 48.2 °F 46.4 °F 93% 29.87 in 10.0 mi South 5.8 mph - 0.00 in   Mostly Cloudy
7:49 AM 50.0 °F 44.6 °F 82% 29.87 in 10.0 mi SSE 4.6 mph - 0.00 in   Mostly Cloudy
7:53 AM 50.0 °F 46.0 °F 86% 29.88 in 10.0 mi SSE 4.6 mph - 0.00 in   Mostly Cloudy
8:42 AM 50.0 °F 46.4 °F 87% 29.88 in 10.0 mi South 4.6 mph - N/A   Overcast
8:53 AM 50.0 °F 46.0 °F 86% 29.89 in 10.0 mi South 4.6 mph - N/A   Overcast
9:53 AM 51.1 °F 46.9 °F 86% 29.89 in 10.0 mi NE 3.5 mph - N/A   Overcast
10:19 AM 51.8 °F 46.4 °F 82% 29.88 in 10.0 mi NE 3.5 mph - N/A   Overcast
10:53 AM 52.0 °F 46.9 °F 83% 29.89 in 10.0 mi Variable 3.5 mph - N/A   Overcast
11:05 AM 51.8 °F 44.6 °F 76% 29.88 in 10.0 mi SW 5.8 mph - N/A   Overcast
11:53 AM 52.0 °F 45.0 °F 77% 29.89 in 10.0 mi WSW 4.6 mph - N/A   Overcast
12:53 PM 53.1 °F 45.0 °F 74% 29.89 in 10.0 mi Variable 3.5 mph - N/A   Mostly Cloudy
1:53 PM 54.0 °F 46.0 °F 75% 29.89 in 10.0 mi SW 5.8 mph - N/A   Overcast
2:30 PM 53.6 °F 44.6 °F 72% 29.88 in 10.0 mi Variable 3.5 mph - N/A   Overcast
2:48 PM 53.6 °F 46.4 °F 77% 29.89 in 10.0 mi SW 3.5 mph - N/A   Overcast
2:53 PM 53.1 °F 46.0 °F 77% 29.90 in 10.0 mi Calm Calm - N/A   Overcast
3:10 PM 53.6 °F 46.4 °F 77% 29.90 in 10.0 mi ESE 11.5 mph - N/A   Overcast
3:46 PM 51.8 °F 44.6 °F 76% 29.90 in 8.0 mi ESE 8.1 mph - 0.00 in Rain Light Rain
3:53 PM 51.1 °F 45.0 °F 80% 29.91 in 9.0 mi ESE 9.2 mph - 0.00 in Rain Light Rain
4:53 PM 52.0 °F 46.0 °F 80% 29.92 in 10.0 mi East 8.1 mph - 0.02 in Rain Light Rain
5:53 PM 52.0 °F 46.9 °F 83% 29.91 in 10.0 mi East 6.9 mph - 0.00 in Rain Light Rain
6:53 PM 53.1 °F 48.0 °F 83% 29.92 in 10.0 mi SE 5.8 mph - 0.00 in   Partly Cloudy
7:22 PM 53.6 °F 48.2 °F 82% 29.91 in 10.0 mi ESE 8.1 mph - N/A   Overcast
7:42 PM 51.8 °F 46.4 °F 82% 29.91 in 10.0 mi ESE 10.4 mph - N/A   Overcast
7:53 PM 52.0 °F 46.9 °F 83% 29.93 in 10.0 mi East 6.9 mph - N/A   Overcast
8:53 PM 48.9 °F 45.0 °F 86% 29.93 in 10.0 mi ENE 6.9 mph - N/A   Mostly Cloudy
9:53 PM 48.9 °F 45.0 °F 86% 29.94 in 10.0 mi NE 4.6 mph - N/A   Clear
10:17 PM 48.2 °F 46.4 °F 93% 29.93 in 10.0 mi NE 4.6 mph - N/A   Mostly Cloudy
10:37 PM 48.2 °F 44.6 °F 87% 29.93 in 10.0 mi ENE 5.8 mph - N/A   Overcast
10:44 PM 48.2 °F 44.6 °F 87% 29.93 in 10.0 mi ENE 6.9 mph - N/A   Overcast
10:53 PM 48.0 °F 44.1 °F 86% 29.94 in 10.0 mi ENE 5.8 mph - N/A   Overcast
11:53 PM 46.9 °F 44.1 °F 90% 29.94 in 10.0 mi East 6.9 mph - N/A   Overcast